Hourly Data Report for July 04, 2021

PRINCE RUPERT
BRITISH COLUMBIA
Current Station Operator: NAVCAN

54°17'10.000" N
130°26'41.000" W
35.40 m
1066482
71022
YPR

Download Data

Hourly Data (July 2021)
Hourly Data Report for July 4, 2021
TIME
LST
Temp Definition
°C
Dew Point Definition
°C
Rel Hum Definition
%
Precip. Amount Definition
mm

Wind Dir Definition
10's deg

Wind Spd Definition
km/h
Visibility Definition
km
Stn Press Definition
kPa
Hmdx Definition


Wind Chill Definition


Weather Definition


00:00 11.2 10.8 97 0.0 20 5 2.4 101.46     Fog
01:00 11.4 11.0 97 0.0 LegendMM 4 1.6 101.45     Rain, Fog
02:00 11.3 10.9 97 0.0 22 5 2.0 101.44     Rain, Fog
03:00 11.4 11.0 97 0.0 20 5 2.4 101.41     Rain, Fog
04:00 11.2 10.8 97 0.2 LegendMM 4 1.6 101.39     Fog
05:00 11.5 11.2 98 0.0 14 5 2.0 101.40     Rain, Fog
06:00 11.8 11.5 98 0.0 LegendMM 4 2.8 101.40     Fog
07:00 12.0 11.7 98 0.0 19 5 0.8 101.41     Rain, Fog
08:00 12.3 12.0 98 0.2 14 9 2.4 101.41     Rain, Fog
09:00 12.6 12.3 98 0.0 24 8 2.4 101.40     Fog
10:00 12.5 12.0 97 0.0 LegendMM 4 3.6 101.41     Fog
11:00 12.7 12.1 96 0.0 27 9 1.6 101.42     Fog
12:00 12.8 12.0 95 0.0 24 9 3.6 101.42     Fog
13:00 13.1 11.8 92 0.0 26 13 6.4 101.43     Fog
14:00 14.5 12.3 87 0.0 23 11 14.5 101.45     LegendNANA
15:00 14.5 11.8 84 0.0 24 13 16.1 101.44     LegendNANA
16:00 14.3 11.6 84 0.0 25 17 16.1 101.43     LegendNANA
17:00 14.3 11.3 82 0.0 24 11 16.1 101.44     LegendNANA
18:00 13.6 11.0 84 0.0 23 9 16.1 101.42     LegendNANA
19:00 13.3 11.0 86 0.0 24 9 16.1 101.43     LegendNANA
20:00 12.9 10.8 87 0.0 24 8 16.1 101.42     LegendNANA
21:00 12.4 10.8 90 0.0 23 8 14.5 101.43     LegendNANA
22:00 12.1 10.6 91 0.0 24 5 14.5 101.44     LegendNANA
23:00 12.1 10.5 90 0.0 22 9 12.9 101.46     LegendNANA

Notes on Data Quality.

Legend

  • E = Estimated
  • M = Missing
  • NA = Not Available*
  • [empty] = Indicates an unobserved value
Date modified: